• Join FlightAware (Why Join?)
  • Login
  • US Flag 
12:24AM EST


 

Airport Tracker/Info


-or-


 

Live Flight TrackerFlight Track Log ✈ N683FE ✈ 12-Apr-2013 ✈ KIND - KATL

Flight Track Log - Related Links

Times and Time Zones

All times are in EDT time to prevent confusion due to time zone crossing. See the N683FE flight status page for this flight to view local times or setup timezone preferences in your user account.

Time Position Orientation Groundspeed Altitude Reporting Facility
EDT Latitude Longitude Course Direction KTS MPH feet Rate Location/Type
04:34AM 39.3330 -86.3220 45° Northeast 19,100  Level FlightAware
04:34AM 39.2770 -86.3080 169° South 20,800 898 Climbing FlightAware
04:35AM 39.2020 -86.2900 169° South 22,800 814 Climbing FlightAware
04:35AM 39.1160 -86.2680 169° South 23,000 712 Climbing FlightAware
04:36AM 39.0090 -86.2410 169° South 23,000 737 Level FlightAware
04:37AM 38.9460 -86.2260 170° South 23,700 791 Climbing FlightAware
04:38AM 38.8690 -86.2070 169° South 25,600 771 Climbing FlightAware
04:38AM 38.7680 -86.1820 169° South 27,900 649 Climbing FlightAware
04:39AM 38.6860 -86.1620 169° South 29,900 483 Climbing FlightAware
04:40AM 38.5970 -86.1400 169° South 31,700 313 Climbing FlightAware
04:41AM 38.5180 -86.1200 169° South 33,000 142 Climbing FlightAware
04:41AM 38.4250 -86.0980 170° South 33,000  Level FlightAware
04:42AM 38.3450 -86.0780 169° South 33,000  Level FlightAware
04:43AM 38.2660 -86.0600 170° South 33,000  Level FlightAware
04:43AM 38.1810 -86.0390 169° South 33,000  Level FlightAware
04:44AM 38.1010 -86.0200 169° South 33,000  Level FlightAware
04:45AM 38.0110 -85.9980 169° South 33,000  Level FlightAware
04:45AM 37.9320 -85.9790 169° South 33,000  Level FlightAware
04:46AM 37.8590 -85.9610 169° South 33,000  Level FlightAware
04:47AM 37.7660 -85.9400 170° South 33,000  Level FlightAware
04:48AM 37.6860 -85.9230 170° South 33,000  Level FlightAware
04:48AM 37.5970 -85.9010 169° South 33,000  Level FlightAware
04:49AM 37.5080 -85.8793 169° South 440 506 33,000  Level FlightAware ADS-B
04:50AM 37.4479 -85.8647 169° South 428 493 33,000  Level FlightAware ADS-B
04:50AM 37.3849 -85.8497 169° South 432 497 33,000  Level FlightAware ADS-B
04:51AM 37.3218 -85.8352 170° South 444 511 33,000  Level FlightAware ADS-B
04:51AM 37.2624 -85.8209 169° South 436 502 33,000  Level FlightAware ADS-B
04:52AM 37.2016 -85.8067 169° South 434 499 33,000  Level FlightAware ADS-B
04:52AM 37.1417 -85.7926 169° South 442 509 33,000  Level FlightAware ADS-B
04:53AM 37.0777 -85.7776 169° South 455 524 33,000  Level FlightAware ADS-B
04:54AM 36.9687 -85.7521 169° South 442 509 33,000  Level FlightAware ADS-B
04:54AM 36.8985 -85.7356 169° South 447 514 33,000  Level FlightAware ADS-B
04:55AM 36.8370 -85.7213 169° South 447 514 33,000  Level FlightAware ADS-B
04:55AM 36.7682 -85.7054 170° South 450 518 33,000  Level FlightAware ADS-B
04:56AM 36.7076 -85.6913 169° South 430 495 33,000  Level FlightAware ADS-B
04:56AM 36.6427 -85.6764 170° South 448 516 33,000  Level FlightAware ADS-B
04:57AM 36.5627 -85.6578 169° South 428 493 33,000  Level FlightAware ADS-B
04:57AM 36.4978 -85.6427 169° South 463 533 33,000  Level FlightAware ADS-B
04:58AM 36.4348 -85.6283 170° South 442 509 33,000  Level FlightAware ADS-B
04:58AM 36.3730 -85.6141 170° South 451 519 33,000  Level FlightAware ADS-B
04:59AM 36.3059 -85.5984 169° South 453 521 33,000  Level FlightAware ADS-B
05:00AM 36.2406 -85.5837 170° South 449 517 33,000  Level FlightAware ADS-B
05:00AM 36.1795 -85.5698 170° South 448 516 33,000  Level FlightAware ADS-B
05:01AM 36.1176 -85.5555 169° South 441 507 33,000  Level FlightAware ADS-B
05:01AM 36.0554 -85.5414 170° South 465 535 33,000  Level FlightAware ADS-B
05:02AM 35.9943 -85.5274 169° South 436 502 33,000  Level FlightAware ADS-B
05:02AM 35.9071 -85.5076 170° South 447 514 33,000  Level FlightAware ADS-B
05:03AM 35.8463 -85.4937 170° South 448 516 33,000  Level FlightAware ADS-B
05:03AM 35.7845 -85.4798 170° South 442 509 33,000  Level FlightAware ADS-B
05:04AM 35.7238 -85.4661 170° South 449 517 33,000  Level FlightAware ADS-B
05:04AM 35.6611 -85.4520 170° South 448 516 33,000  Level FlightAware ADS-B
05:05AM 35.6003 -85.4381 169° South 447 514 33,000  Level FlightAware ADS-B
05:05AM 35.5396 -85.4245 170° South 447 514 33,000  Level FlightAware ADS-B
05:06AM 35.4778 -85.4106 170° South 451 519 33,000  Level FlightAware ADS-B
05:06AM 35.4156 -85.3966 170° South 455 524 33,000  Level FlightAware ADS-B
05:07AM 35.3547 -85.3830 170° South 430 495 33,000  Level FlightAware ADS-B
05:07AM 35.2927 -85.3691 170° South 451 519 33,000  Level FlightAware ADS-B
05:08AM 35.2319 -85.3555 170° South 457 526 33,000  Level FlightAware ADS-B
05:08AM 35.1710 -85.3420 170° South 438 504 33,000  Level FlightAware ADS-B
05:09AM 35.1068 -85.3276 170° South 448 516 33,000  Level FlightAware ADS-B
05:09AM 35.0435 -85.3136 170° South 453 521 33,000 -97 Level FlightAware ADS-B
05:10AM 34.9813 -85.2997 170° South 442 509 32,900 -581 Descending FlightAware ADS-B
05:10AM 34.9170 -85.2855 170° South 449 517 32,400 -2,096 Descending FlightAware ADS-B
05:11AM 34.7960 -85.2590 170° South 31,500 -2,292 Descending FlightAware
05:12AM 34.7280 -85.2440 170° South 30,300 -3,105 Descending FlightAware
05:13AM 34.6167 -85.2194 170° South 27,100 -3,570 Descending FlightAware ADS-B
05:13AM 34.5553 -85.2059 170° South 442 509 25,600 -2,951 Descending FlightAware ADS-B
05:14AM 34.4948 -85.1928 170° South 436 502 24,100 -2,806 Descending FlightAware ADS-B
05:14AM 34.4306 -85.1787 170° South 453 521 22,700 -2,667 Descending FlightAware ADS-B
05:15AM 34.3685 -85.1652 170° South 445 512 21,300 -1,511 Descending FlightAware ADS-B
05:18AM 34.0920 -85.0170 156° South 14,300 -1,456 Descending FlightAware
05:18AM 34.0340 -84.9540 138° Southeast 14,200 -1,092 Descending FlightAware
05:19AM 33.9690 -84.8720 134° Southeast 14,200 -1,170 Level FlightAware
05:20AM 33.9190 -84.8070 133° Southeast 13,600 -1,291 Descending FlightAware
05:20AM 33.8580 -84.7300 134° Southeast 11,900 -1,330 Descending FlightAware
05:21AM 33.8130 -84.6710 133° Southeast 11,400 -1,210 Descending FlightAware
05:22AM 33.7640 -84.6060 132° Southeast 10,900 -1,269 Descending FlightAware
05:22AM 33.7320 -84.5550 127° Southeast 9,900 -1,371 Descending FlightAware
05:23AM 33.7290 -84.5300 98° East 9,600 -1,348 Descending FlightAware
05:23AM 33.7300 -84.4730 89° East 8,900 -1,358 Descending FlightAware
05:24AM 33.7310 -84.4190 89° East 8,200 -1,352 Descending FlightAware
05:24AM 33.7310 -84.3690 90° East 7,600 -1,342 Descending FlightAware
05:25AM 33.7310 -84.3220 90° East 7,100 -1,377 Descending FlightAware
05:25AM 33.7310 -84.2610 90° East 6,200 -1,586 Descending FlightAware
05:26AM 33.7167 -84.2000 90° East 250 288 4,800 -1,782 Descending Atlanta TRACON
05:27AM 33.6833 -84.1833 157° South 213 245 3,200 -947 Descending Atlanta TRACON
05:28AM 33.6500 -84.2333 231° Southwest 196 226 3,000 -150 Descending Atlanta TRACON
05:29AM 33.6500 -84.2833 270° West 169 194 2,900 -450 Descending Atlanta TRACON
05:30AM 33.6500 -84.3500 270° West 143 165 2,100 -700 Descending Atlanta TRACON
05:31AM 33.6500 -84.3833 270° West 117 135 1,500 -600 Descending Atlanta TRACON
05:33AM 33.6333 -84.4167 North  Level FlightAware Approximate
05:40AM 33.6367 -84.4279 North  Level Estimated